Location: Brno
(49.2000°N, 16.6330°E)
Time: 03:05:27
(UTC+02:00)

Meteor 1-4 Rocket - Visible Passes

Search period start: 19 April 2015 00:00
Search period end: 29 April 2015 00:00
Orbit: 463 x 523 km, 81.2° (Epoch: 18 April)

Date Brightness Start Highest point End Pass type
(mag) Time Alt. Az. Time Alt. Az. Time Alt. Az.
19 Apr 5.1 01:36:56 19° ENE 01:36:56 19° ENE 01:38:36 10° NE visible
19 Apr 4.1 03:11:29 28° NW 03:11:29 28° NW 03:14:14 10° N visible
20 Apr 5.4 01:15:06 14° ENE 01:15:06 14° ENE 01:16:11 10° NE visible
20 Apr 3.9 02:49:39 35° NW 02:49:39 35° NW 02:52:25 10° N visible
21 Apr 5.6 00:53:16 10° ENE 00:53:16 10° ENE 00:53:27 10° ENE visible
21 Apr 3.8 02:27:48 40° NNW 02:27:48 40° NNW 02:30:31 10° N visible
22 Apr 3.9 02:05:56 41° N 02:05:56 41° N 02:08:32 10° N visible
23 Apr 4.1 01:44:02 36° NNE 01:44:02 36° NNE 01:46:29 10° NNE visible
23 Apr 5.0 03:18:34 13° WNW 03:18:36 13° WNW 03:20:20 10° NNW visible
24 Apr 4.4 01:22:07 30° NE 01:22:07 30° NE 01:24:22 10° NNE visible
24 Apr 4.8 02:56:39 17° WNW 02:56:39 17° WNW 02:58:55 10° NNW visible
25 Apr 4.7 01:00:10 24° NE 01:00:10 24° NE 01:02:09 10° NNE visible
25 Apr 4.5 02:34:42 22° NW 02:34:42 22° NW 02:37:15 10° NNW visible
26 Apr 5.0 00:38:12 19° ENE 00:38:12 19° ENE 00:39:49 10° NE visible
26 Apr 4.3 02:12:44 28° NW 02:12:44 28° NW 02:15:25 10° N visible
27 Apr 5.2 00:16:12 15° ENE 00:16:12 15° ENE 00:17:21 10° NE visible
27 Apr 4.0 01:50:44 35° NW 01:50:44 35° NW 01:53:31 10° N visible
27 Apr 5.4 23:54:11 11° ENE 23:54:11 11° ENE 23:54:35 10° ENE visible
28 Apr 3.8 01:28:43 41° NNW 01:28:43 41° NNW 01:31:30 10° N visible
